Temp_Advection
nan nan nan nan nan nan nan nan nan nan nan nan nan nan nan nan nan nan nan nan nan nan nan nan nan nan nan nan nan nan nan nan nan nan nan nan nan nan nan nan nan nan nan nan nan nan nan nan nan nan nan nan nan nan nan nan nan nan nan nan nan nan nan nan nan nan nan nan nan
nan -0 -0 0 0 -0 -0 0 0 -0 -0 -0 0 0 0 0 0 0 0 1 0 0 -0 -0 -0 -0 -1 -0 -0 0 0 0 1 1 1 1 1 1 -0 -0 0 0 1 0 1 0 0 -0 -0 -0 -1 -1 -2 -2 -2 -1 -1 -0 0 1 1 1 1 1 1 1 1 1 nan
nan -0 -0 -0 0 0 -0 -0 0 0 -0 -0 -0 0 0 0 0 1 1 1 1 1 0 -0 -0 0 0 0 0 0 1 1 1 1 1 1 1 -0 -1 -1 0 1 1 1 0 0 -0 -0 -0 -1 -1 -2 -2 -1 -1 -0 -0 0 1 1 1 1 0 0 1 1 1 1 nan
nan -0 -0 -0 -0 -0 -0 -0 0 0 0 -0 -0 -0 0 -0 -0 0 0 1 1 1 1 0 0 1 1 1 0 1 1 1 1 1 1 1 -0 -1 -1 0 1 1 1 0 0 0 0 -0 -0 -1 -2 -2 -1 -1 -0 0 1 1 1 1 1 0 0 0 1 1 1 1 nan
nan -0 0 -0 -0 -0 -0 -0 -0 -0 0 0 -0 -0 -0 -0 -0 -0 -0 0 0 0 1 1 1 1 0 0 0 0 1 1 1 1 0 -0 -1 -0 1 1 1 1 0 0 0 0 0 -0 -1 -2 -1 -0 -0 0 0 1 1 1 1 1 1 0 0 1 1 1 1 1 nan
nan -0 0 -0 -0 -0 0 0 0 0 -0 -0 -0 -0 -0 -0 -0 -0 -0 -0 -0 -0 0 0 0 -0 -0 -0 -0 0 0 0 0 0 -0 -1 -0 1 1 1 1 0 0 1 1 1 -0 -1 -1 -1 -0 0 1 1 1 1 1 1 1 1 1 1 1 1 1 1 1 1 nan
nan -0 -0 -0 -0 -0 -0 0 0 0 0 0 -0 -0 -0 -0 -1 -1 -1 -1 -1 -1 -0 -0 -0 -0 -0 -0 0 0 0 0 0 -0 -1 -1 0 1 1 0 0 0 1 1 1 0 -0 -1 -1 0 1 1 1 1 1 1 1 1 0 0 0 1 1 1 1 1 1 0 nan
nan -0 -0 -0 -0 -0 -0 -0 0 0 0 0 0 0 0 0 -0 -0 -0 -1 -1 -1 -1 -0 -0 0 0 0 0 0 0 0 0 -0 -1 -0 1 1 0 0 0 0 1 1 1 0 0 0 1 1 1 1 1 0 0 0 0 0 0 0 1 1 1 1 1 1 0 0 nan
nan -0 -0 -0 -0 -0 0 -0 -0 -0 0 0 0 0 0 0 0 0 0 0 0 0 0 0 0 1 1 1 1 1 1 0 0 -0 -0 1 1 1 0 -0 -0 0 1 1 1 1 1 1 1 1 1 0 0 -0 -0 -0 -0 0 0 1 1 1 1 1 0 0 0 0 nan
nan -0 0 -0 -0 0 0 0 0 -0 -0 -0 0 0 0 0 0 0 0 0 0 1 1 1 1 1 1 1 1 1 1 1 0 0 1 1 1 0 -0 -0 -1 -0 0 1 1 1 1 1 1 0 0 0 -0 -0 -0 -0 -0 -0 0 0 0 0 0 0 0 0 0 0 nan
nan -0 0 0 0 0 0 0 -0 -0 -0 -0 -0 0 0 0 0 0 0 0 0 0 0 0 0 0 0 1 1 1 1 1 1 1 1 1 1 0 -0 -0 -0 -1 -1 -0 0 1 1 0 0 0 0 -0 -0 -0 -0 -0 0 0 0 0 0 0 0 0 -0 0 0 1 nan
nan 0 0 0 0 0 0 -0 -0 -0 -0 -0 -0 -0 0 0 0 0 0 0 0 0 0 0 0 0 0 0 0 0 0 0 1 1 1 1 0 0 -0 -0 -0 -0 -1 -2 -1 -1 -1 -1 -0 -0 -0 0 0 -0 0 0 0 0 0 0 0 0 0 0 0 0 1 1 nan
nan 0 0 0 0 0 -0 -0 -0 -0 -0 -0 -0 -0 -0 -0 -0 -0 0 0 0 0 0 0 0 0 0 0 0 0 0 0 0 0 0 0 0 -0 -0 -0 0 -0 -1 -1 -2 -2 -2 -2 -1 -0 0 0 0 0 0 0 0 0 0 0 0 0 0 0 1 1 1 0 nan
nan 0 0 0 0 -0 -0 -1 -0 -0 -0 -0 -0 -0 -0 -0 -0 -0 -0 -0 -0 -0 -0 0 0 0 0 0 0 0 0 0 0 -0 -0 -0 -0 -0 -0 -0 -0 -0 -0 -1 -1 -1 -1 -1 -0 0 1 0 0 -0 -0 -0 -0 -0 0 0 0 0 0 1 1 1 0 -0 nan
nan -0 0 0 -0 -0 -1 -1 -1 -0 -0 -0 -0 -0 -0 -0 -0 -0 -0 -0 -0 -0 -0 -0 -0 0 0 0 0 0 0 0 0 -0 -0 -0 -0 -0 -0 -0 -0 -0 0 -0 -0 0 0 0 1 1 1 0 -0 -1 -1 -0 -0 -0 0 0 0 1 1 1 1 0 -0 -1 nan
nan -0 0 0 -0 -0 -0 -0 -0 -0 -0 -0 -0 -0 -0 -0 -0 -0 -0 -0 -0 -0 -0 -0 -0 0 0 0 0 0 0 0 0 0 0 0 -0 -0 -0 -0 0 0 0 0 1 1 1 1 1 1 0 0 -1 -1 -1 -1 -0 0 0 1 1 1 1 1 1 -0 -1 -1 nan
nan -0 -0 0 0 -0 -0 -0 -0 -0 -0 -0 -0 -0 -0 -0 -0 -0 -0 -0 -0 -0 -0 -0 -0 0 0 0 0 0 0 0 0 0 0 0 0 -0 0 0 0 1 1 1 1 1 0 -0 -0 -0 -0 -0 -1 -1 -1 -1 -0 0 1 1 1 1 1 1 0 -1 -1 -0 nan
nan -0 -0 -0 -0 -0 -0 -0 -0 -0 -0 -0 -0 -0 -0 -0 -0 -0 -0 -0 -0 -0 -0 0 0 0 0 0 0 0 0 0 0 0 0 0 0 0 1 1 1 1 1 1 0 -0 -0 -0 -0 -0 -0 -1 -1 -1 -1 -1 -0 0 1 1 1 1 1 0 -0 -1 -1 -0 nan
nan -1 -1 -1 -0 -0 0 -0 -0 -0 0 0 0 0 -0 -0 -0 -0 -0 -0 -0 -0 0 0 0 -0 0 0 0 0 0 0 0 0 0 0 0 0 1 1 1 1 1 0 0 -0 -0 -0 -0 -0 -0 -0 -1 -1 -1 -0 0 1 1 1 1 1 1 0 -1 -1 -1 0 nan
nan -1 -1 -1 -0 -0 -0 -0 -0 -0 0 0 0 0 0 0 0 -0 -0 0 -0 -0 -0 -0 0 -0 -0 -0 -0 -0 0 0 0 0 0 0 0 0 0 0 1 1 0 0 0 0 1 1 1 1 0 -0 -1 -1 -1 -0 1 1 1 2 2 1 1 0 -1 -1 -0 0 nan
nan -0 -0 -0 -0 -0 -0 -0 -0 0 0 0 0 0 0 0 0 -0 -0 0 0 -0 -0 -0 -0 0 0 -0 0 0 0 0 0 0 0 0 -0 -0 -0 0 0 0 0 0 0 1 1 1 1 0 -0 -0 -1 -1 -0 0 1 2 2 2 2 1 1 -0 -1 -1 -0 0 nan
nan 0 0 0 0 0 -0 -0 -0 -0 0 0 0 0 0 -0 -0 -0 -0 -0 -0 0 0 -0 -0 -0 -0 0 0 0 0 0 0 0 0 -0 -0 -0 0 0 0 0 0 0 0 0 0 0 0 0 -0 -0 -0 -0 0 1 1 2 2 2 1 1 0 -1 -1 -1 -0 0 nan
nan 1 1 1 0 0 0 0 -0 -0 -0 -0 -0 -0 -0 -0 -0 -0 0 0 -0 0 0 0 0 -0 -0 0 0 0 0 0 0 0 0 -0 -0 -0 0 0 0 -0 -0 0 0 0 0 0 0 0 0 0 -0 -0 -0 0 1 1 2 1 1 0 -1 -1 -1 -1 0 0 nan
nan 1 1 1 1 1 0 0 0 -0 -0 -0 -0 -0 -0 -0 0 0 0 -0 -0 0 0 0 0 0 -0 -0 -0 -0 0 0 0 0 -0 -0 -0 -0 -0 0 0 -0 0 0 0 0 -0 -0 0 0 1 1 0 -0 -1 -0 1 1 1 1 0 -0 -1 -1 -1 -0 0 0 nan
nan 1 1 1 1 1 0 0 -0 -0 -0 -0 -0 -0 -0 -0 -0 -0 0 -0 0 0 0 0 0 0 0 0 -0 -0 0 0 0 -0 -0 -0 -0 -0 0 0 0 0 0 0 0 -0 -0 -0 -0 0 0 0 0 -0 -1 -0 1 1 1 0 -0 -1 -1 -1 -0 0 0 0 nan
nan 1 0 1 1 1 0 0 0 -0 -0 -0 -0 -0 -1 -0 -0 -0 -0 0 0 0 0 0 0 0 -0 -0 0 0 0 0 0 -0 -0 -0 0 0 0 0 0 0 0 0 0 -0 -0 -0 -0 -0 0 0 0 -0 -1 -1 -0 0 0 -0 -0 -1 -1 -0 0 0 0 0 nan
nan 0 0 1 1 0 0 0 0 0 0 -0 -0 -1 -1 -1 -0 -0 -0 -0 -0 -0 0 -0 -0 -0 0 -0 -0 -0 0 0 0 0 -0 -0 0 0 0 0 0 0 0 0 0 0 0 0 0 0 0 0 0 -0 -1 -1 -1 -0 -0 -0 -0 -0 -0 -0 0 0 0 0 nan
nan -0 0 0 0 0 0 0 0 0 0 -0 -0 -0 -0 -0 -0 -0 -0 -0 -0 -0 -0 -0 -0 -0 -0 0 0 -0 -0 0 0 0 0 0 0 0 0 0 0 0 0 0 0 0 0 0 0 0 0 1 0 -0 -1 -1 -1 -0 0 0 0 -0 -0 0 0 0 0 0 nan
nan -0 -0 -0 -0 0 0 -0 -0 -0 -0 0 0 0 0 0 -0 -0 -0 -0 -0 -0 -0 -0 -0 -0 0 0 -0 0 -0 -0 -0 -0 0 0 0 0 0 0 -0 0 0 0 0 0 0 0 0 0 1 1 0 -0 -0 -0 0 0 0 0 0 -0 -0 0 0 0 1 1 nan
nan -0 -0 -0 -0 -0 -0 -0 -0 -0 -0 0 0 0 0 0 0 -0 -0 -0 -0 -0 -0 -0 -0 -0 -0 -0 -0 -0 -0 -0 -0 -0 -0 0 0 0 0 0 -0 -0 0 0 0 0 0 0 1 1 1 1 1 0 0 1 1 0 -0 -0 0 -0 -0 0 0 1 1 1 nan
nan -0 -0 -0 -0 -0 -0 -0 -0 -0 -0 -0 -0 0 0 0 0 -0 -0 -0 -0 -0 -0 -0 -0 -0 -0 -0 -0 -0 -0 -0 0 -0 -0 -0 0 0 0 0 0 -0 0 0 0 0 0 0 1 1 1 1 1 0 0 0 0 -0 -1 -0 -0 0 0 0 0 1 1 1 nan
nan -1 -0 -0 -0 -0 -0 -0 -0 -0 -0 -0 -0 -0 -0 -0 0 0 0 0 -0 -0 -0 -0 -0 -0 -0 0 0 -0 -0 -0 -0 -0 0 -0 -0 0 0 0 0 0 0 0 0 0 0 0 0 0 0 1 0 0 0 -0 -0 -0 -0 -0 0 0 0 0 0 1 1 0 nan
nan -1 -1 -1 -0 -0 0 -0 -0 -0 -0 -0 -0 -0 -0 -0 -0 0 0 0 0 -0 -0 -1 -1 -1 -0 -0 -0 0 0 -0 -0 -0 -0 0 0 -0 0 0 0 0 0 0 0 0 0 0 0 0 0 0 0 -0 -0 -0 -0 -0 -0 -0 -0 0 0 0 0 0 0 0 nan
nan -1 -1 -1 -1 -0 -0 0 -0 -0 -0 -0 -0 -0 -0 -0 -0 -0 -0 0 0 0 -0 -0 -1 -1 -1 -1 -0 -0 -0 0 -0 -0 -0 -0 0 0 0 0 0 -0 -0 0 0 0 -0 -0 0 0 0 0 0 0 0 -0 -0 -1 -1 -0 -0 -0 -0 -0 0 0 0 0 nan
nan -1 -1 -1 -1 -1 -0 -0 0 0 0 -0 -0 -0 -0 -0 -0 -1 -0 -0 -0 0 0 0 0 -0 -1 -1 -1 -0 -0 -0 -0 -0 -0 -0 -0 0 0 0 0 0 -0 -0 -0 0 0 0 0 0 0 0 0 0 -0 -0 -1 -1 -1 -0 -0 -0 -0 -0 0 0 0 0 nan
nan -1 -1 -1 -1 -1 -1 -1 -0 0 0 -0 -0 -0 -0 -0 -0 -0 -0 -0 -0 0 0 0 0 0 0 -0 -1 -1 -0 -0 -0 -0 -0 -0 -0 -0 -0 0 0 0 0 -0 -0 -0 -0 0 0 0 0 0 0 0 -0 -0 -1 -1 -1 -0 -0 -0 -0 0 0 0 0 0 nan
nan -0 -1 -1 -1 -1 -1 -1 -1 -1 -0 -0 -0 -0 -0 -0 -0 -0 -0 -0 -0 -0 -0 0 0 0 0 0 -0 -1 -1 -0 -0 -0 -0 -0 -0 -0 -0 -0 0 0 0 -0 -0 -0 -0 0 0 0 0 0 0 -0 -0 -0 -1 -1 -0 -0 -0 -0 0 0 1 1 0 0 nan
nan -0 -0 -0 -0 -1 -1 -1 -1 -1 -1 -1 -0 0 0 0 -0 -0 -0 -0 -0 -1 -1 -0 -0 0 0 0 0 -0 -0 -1 -1 -0 -0 -0 -0 -0 -0 -0 -0 0 0 0 -0 -0 -0 -0 0 0 0 0 -0 -0 -0 -1 -1 -0 -0 0 0 0 1 1 1 1 0 0 nan
nan -0 -0 -0 -0 -0 -1 -1 -1 -1 -1 -1 -1 -0 0 0 -0 -0 0 -0 -0 -0 -1 -1 -0 -0 -0 -0 0 0 0 -0 -1 -1 -1 -1 -0 -0 -0 -0 -0 0 0 0 -0 -0 -0 -0 0 0 0 0 -0 -0 -0 -1 -0 -0 0 1 1 1 1 1 1 0 0 0 nan
nan -0 -0 -0 -0 -0 -0 -1 -1 -1 -1 -1 -1 -1 -0 0 0 0 0 -0 -0 -0 -0 -0 -0 -0 -0 -0 -0 -0 0 0 0 -0 -1 -1 -1 -0 -0 0 -0 -0 0 0 -0 -0 -0 -0 -0 -0 0 0 -0 -0 -0 -0 -0 0 0 0 0 0 0 0 0 0 0 -0 nan
nan nan nan nan nan nan nan nan nan nan nan nan nan nan nan nan nan nan nan nan nan nan nan nan nan nan nan nan nan nan nan nan nan nan nan nan nan nan nan nan nan nan nan nan nan nan nan nan nan nan nan nan nan nan nan nan nan nan nan nan nan nan nan nan nan nan nan nan nan
Wind_Speed
14 14 15 17 18 20 23 25 26 27 28 29 31 32 34 35 36 38 39 40 41 42 42 42 43 44 44 45 47 48 49 49 50 50 48 44 42 41 41 40 38 36 35 34 34 35 35 35 36 36 36 36 35 33 32 30 28 26 26 26 26 26 26 26 26 27 29 29 29
20 20 20 19 18 19 20 23 25 27 27 27 28 30 33 35 36 38 39 40 41 41 41 42 42 42 43 43 45 46 47 48 49 49 46 43 41 40 39 37 35 32 31 31 33 35 35 35 34 34 34 33 32 30 28 27 25 25 24 25 25 25 25 25 25 25 26 27 27
23 20 19 19 19 19 19 20 21 23 24 25 25 26 29 32 33 35 36 37 39 40 40 40 40 41 41 42 44 45 45 46 47 46 44 41 39 37 35 32 29 26 24 26 30 33 34 34 33 33 32 31 29 28 27 26 25 24 24 24 24 24 23 23 23 23 24 25 25
27 24 21 20 21 21 21 20 19 20 22 22 23 24 25 26 28 29 31 34 35 37 38 39 39 39 40 40 41 41 42 43 43 42 40 38 36 33 30 25 21 18 18 21 26 29 31 32 32 32 31 30 28 27 26 25 24 24 23 23 23 23 22 22 22 22 23 24 24
27 27 25 22 20 20 20 20 20 20 21 22 22 22 23 24 25 27 29 31 33 34 36 36 36 36 36 36 36 36 37 38 38 38 37 35 33 29 23 19 17 16 17 19 23 26 29 30 31 31 30 29 27 26 25 24 24 23 23 22 22 22 21 21 21 22 22 23 23
25 25 25 24 21 19 18 18 18 19 20 21 21 20 20 22 23 25 27 29 30 31 32 32 32 32 31 31 31 32 33 34 34 34 33 32 29 24 20 19 19 19 19 20 22 25 28 30 30 30 29 27 26 25 24 23 23 23 22 22 21 21 20 20 21 21 22 23 23
25 24 24 23 21 19 17 15 15 15 15 16 16 16 16 17 19 20 22 23 25 25 26 26 25 25 26 27 28 30 31 31 31 31 30 29 26 22 19 20 20 20 20 21 23 25 27 28 28 27 26 25 24 23 23 22 22 22 21 21 21 20 20 20 21 21 22 23 24
26 25 24 23 22 20 18 16 14 13 12 11 11 11 11 11 11 11 12 15 18 19 20 21 21 22 23 25 26 27 28 28 28 27 27 27 25 22 20 20 19 19 20 22 24 25 26 26 25 25 24 23 23 22 21 21 20 20 20 20 20 20 20 20 21 21 22 23 24
28 27 25 24 22 21 19 17 16 14 12 11 9 8 7 6 6 5 6 7 11 15 18 20 21 22 23 23 24 25 25 25 25 24 24 24 23 22 21 20 19 20 21 22 23 24 23 23 22 22 21 21 21 20 20 19 19 19 19 19 20 20 20 20 21 21 21 22 23
28 27 26 25 23 21 19 18 17 16 14 12 10 7 6 5 4 4 4 5 7 11 15 17 19 20 21 21 22 22 23 23 23 22 21 22 23 23 22 21 20 21 22 22 22 22 21 20 20 19 18 18 18 18 18 17 18 18 18 19 19 20 20 20 21 21 21 22 23
28 27 26 25 23 21 19 18 17 16 15 13 11 8 6 4 3 3 4 5 7 10 12 13 15 17 18 19 20 21 21 21 21 21 20 21 23 24 24 22 21 22 23 23 22 21 20 18 18 17 16 15 15 16 16 16 17 17 18 19 20 20 20 21 21 21 21 22 22
28 27 26 24 23 21 20 18 17 16 15 13 11 9 7 5 3 2 3 4 6 8 9 10 12 14 16 18 20 21 22 22 21 21 21 22 24 25 25 24 23 23 23 24 23 22 20 18 17 15 14 14 14 15 15 16 17 17 18 19 20 20 21 21 21 21 22 22 22
29 27 26 25 23 22 21 19 18 16 15 13 12 10 8 6 4 3 2 1 3 4 6 7 10 12 15 17 20 21 22 23 23 23 23 24 25 26 26 25 24 24 24 24 24 24 22 20 18 16 14 14 14 15 15 16 17 17 18 19 20 21 21 22 22 22 22 22 22
31 29 27 26 25 24 23 22 20 18 16 14 13 11 9 8 7 6 5 4 2 1 2 4 7 10 13 15 18 20 22 23 23 24 24 25 26 27 26 26 25 25 25 25 25 25 24 22 20 17 15 14 14 15 16 16 16 17 18 19 20 21 22 22 23 23 22 22 21
32 31 29 27 26 25 25 24 23 21 19 17 15 13 11 10 8 7 6 6 5 4 3 3 5 8 10 13 15 17 19 21 23 24 25 26 27 27 27 26 25 25 25 25 24 24 22 20 19 16 14 14 15 16 17 17 17 17 18 19 20 21 22 22 23 23 22 21 21
33 32 31 29 28 27 26 25 24 23 22 21 19 16 14 12 10 8 6 5 5 5 4 3 4 6 9 11 13 15 17 19 21 23 24 25 26 27 27 26 25 25 24 23 22 19 17 15 14 12 11 12 15 16 17 17 17 18 18 20 20 21 22 23 23 23 22 20 20
34 33 32 30 29 28 26 25 24 24 23 23 21 20 17 15 12 10 7 5 4 3 2 1 2 5 7 9 11 13 15 17 19 21 22 24 25 26 26 26 25 24 22 19 16 13 11 10 9 8 8 10 14 17 17 17 17 18 19 20 21 21 22 23 23 22 20 19 19
34 33 32 31 29 28 27 25 24 24 23 23 22 21 20 18 15 13 10 7 4 1 1 1 2 4 6 8 10 12 14 16 18 19 20 22 23 24 25 25 24 22 18 13 10 8 8 8 7 7 8 11 15 17 18 18 18 18 19 20 21 22 22 23 22 21 19 18 18
34 33 32 31 29 28 26 25 24 23 22 22 21 21 21 19 18 16 13 9 6 2 1 2 3 4 5 7 8 11 13 15 16 18 19 20 20 22 22 22 21 18 14 10 9 8 9 9 9 10 12 15 16 17 17 18 18 19 20 21 22 23 23 23 22 20 18 17 17
34 33 32 31 29 27 26 24 23 22 22 21 20 20 20 19 19 17 15 12 9 5 2 2 4 5 5 6 8 9 11 13 15 16 17 18 19 19 20 20 18 15 12 10 11 11 11 12 13 14 15 16 17 17 17 18 19 20 21 22 22 23 23 23 21 18 17 16 17
34 33 31 30 29 27 25 24 22 21 20 20 19 19 19 18 18 17 16 14 12 8 5 3 4 5 5 6 7 8 10 11 13 14 15 16 17 17 18 17 14 12 11 12 12 13 14 14 15 15 16 16 16 17 17 18 19 20 21 22 22 23 23 22 20 18 16 16 17
34 33 31 29 28 27 25 23 22 20 19 19 19 18 18 17 17 16 16 15 13 11 8 5 4 5 5 6 6 7 8 9 11 12 14 14 15 15 15 14 11 10 11 12 12 13 13 14 14 14 15 15 16 17 17 18 19 21 22 22 22 22 22 21 19 17 16 16 17
34 33 31 29 28 26 25 23 22 20 19 18 17 17 17 16 15 14 14 14 13 12 10 8 5 3 5 6 6 6 6 7 9 11 13 13 13 12 12 11 11 11 11 12 12 12 13 13 14 14 15 15 16 17 17 18 19 21 21 22 22 21 21 19 17 16 16 17 18
34 33 32 30 28 26 25 23 22 21 20 18 17 16 15 15 14 13 12 12 12 12 11 10 8 4 2 5 6 6 6 6 8 10 12 13 12 12 12 12 13 13 13 14 14 14 14 14 15 15 15 16 16 16 17 19 20 20 21 21 21 21 19 18 16 16 16 17 18
33 33 32 31 29 27 26 24 23 22 21 19 17 15 14 13 13 12 11 11 10 10 10 9 9 7 4 2 3 5 6 7 8 9 11 12 13 14 15 16 16 16 16 16 16 16 15 15 14 15 15 16 16 16 17 19 20 21 21 21 20 20 18 17 16 16 17 17 18
31 31 32 31 30 29 27 26 24 22 21 19 18 16 15 13 12 11 10 10 9 8 8 8 7 7 6 5 4 3 3 5 7 8 10 12 13 15 16 18 19 19 19 19 18 16 14 13 12 12 13 14 15 16 17 19 20 21 21 20 20 19 18 17 16 16 17 17 17
30 30 31 30 30 29 28 26 25 23 21 20 19 18 16 14 12 10 9 8 8 7 7 6 6 6 5 5 5 5 4 3 4 6 8 10 12 14 15 17 19 20 21 21 19 16 13 11 10 10 12 14 15 16 18 19 20 21 20 20 19 19 18 17 16 17 17 17 17
29 30 30 30 30 29 28 27 26 24 23 21 20 19 17 16 13 11 9 8 7 6 5 5 5 5 5 4 4 5 5 5 5 5 6 8 10 12 14 16 17 19 21 22 21 18 15 13 11 11 13 14 16 17 18 19 20 20 20 20 19 19 18 17 16 17 17 18 18
28 29 29 29 29 29 28 28 27 26 24 22 20 19 17 16 15 13 11 9 7 6 6 5 5 4 3 4 3 3 3 5 5 5 5 6 7 10 13 15 17 18 19 21 22 21 19 17 15 15 15 17 18 19 20 20 19 19 20 20 20 19 18 17 17 17 17 18 18
27 27 28 28 28 28 28 28 27 26 25 23 21 19 18 16 15 14 13 11 9 8 7 7 6 4 4 3 2 2 2 2 3 5 6 7 7 8 10 14 16 17 18 20 21 22 22 21 20 19 19 20 21 21 21 20 19 19 19 20 20 19 18 17 17 17 17 18 19
26 26 27 27 28 28 28 27 27 26 25 24 23 21 19 17 16 15 14 13 11 10 8 7 6 6 6 5 4 3 2 1 1 3 5 7 8 8 9 10 14 17 19 20 20 21 22 23 23 23 23 23 22 22 21 19 18 18 19 20 20 19 18 18 17 17 17 18 19
25 25 25 26 27 27 28 27 27 26 26 25 24 23 21 19 17 16 15 14 13 11 10 8 6 7 8 9 8 7 6 5 4 3 3 5 7 9 9 9 10 13 17 19 20 20 21 22 24 25 25 23 22 20 19 17 17 18 19 20 20 20 19 19 18 18 18 18 19
25 24 24 25 25 26 27 27 27 26 26 25 25 24 22 20 18 16 15 14 13 13 12 11 9 7 7 9 11 10 9 9 8 7 6 4 5 7 9 9 9 10 12 15 17 19 20 21 22 23 23 22 20 18 17 16 17 18 20 20 20 20 20 20 19 19 18 19 19
26 25 24 24 24 25 25 26 26 27 26 26 25 24 23 22 20 18 16 15 14 13 13 12 12 10 8 7 8 10 11 11 11 11 10 8 6 6 8 10 10 10 10 10 12 13 15 17 19 20 20 19 18 17 17 18 19 19 20 20 20 20 20 20 20 19 19 19 20
26 26 25 24 24 24 24 24 25 26 27 27 26 25 24 23 21 19 18 16 15 13 13 12 12 12 11 9 6 8 11 13 13 13 13 12 10 9 8 9 10 11 11 10 10 10 10 12 14 16 17 17 17 18 19 20 20 20 20 20 20 20 21 21 20 20 20 21 22
27 27 26 25 24 24 23 23 24 25 26 27 27 26 25 23 22 20 19 17 16 14 13 13 12 12 12 11 9 6 7 11 14 15 15 14 13 12 11 10 10 11 11 11 10 10 10 11 12 14 16 17 19 20 21 22 22 22 22 21 21 21 21 21 21 21 21 22 24
27 27 26 26 25 24 24 23 23 24 25 26 27 27 26 24 22 21 19 18 17 16 14 13 13 13 13 13 12 10 6 6 11 14 16 16 15 14 13 13 12 11 11 11 11 11 12 12 13 14 16 18 20 22 23 24 24 24 24 23 22 22 22 21 21 22 23 24 25
26 26 26 26 25 25 24 24 24 24 25 25 26 27 26 25 23 21 20 19 18 17 16 15 14 13 13 13 13 12 10 7 7 10 14 15 15 15 14 14 13 12 11 11 11 12 12 13 13 14 16 19 21 23 24 25 25 25 25 25 24 23 23 22 22 23 24 25 27
25 25 25 25 25 25 24 24 24 24 25 25 26 26 26 25 24 23 21 19 18 17 16 16 15 14 14 13 13 13 12 10 8 8 10 13 15 15 15 14 14 13 12 10 11 12 13 13 13 14 15 18 21 23 24 25 26 26 26 25 25 24 23 23 23 23 24 26 27
25 25 25 25 25 25 25 24 24 25 25 25 25 25 26 25 25 23 22 20 19 17 17 16 15 15 14 14 14 14 13 12 11 10 9 10 13 15 16 16 16 15 14 11 11 11 12 13 13 13 14 17 19 22 24 25 26 26 26 25 25 25 24 24 24 24 24 25 26
24 24 24 24 24 24 24 25 24 24 24 24 25 25 25 25 24 24 23 21 19 18 17 16 16 15 15 14 14 14 14 13 13 12 11 10 10 12 14 16 17 17 16 13 11 10 11 11 12 13 13 15 18 20 23 24 25 26 26 26 26 26 26 25 25 25 25 25 26
Wind_Direction
87 94 97 97 96 99 107 116 125 131 135 139 145 149 152 155 156 158 161 164 165 166 168 170 173 175 178 181 184 188 191 194 196 198 200 202 200 197 194 192 192 191 187 184 183 184 185 187 189 191 192 194 195 197 200 203 205 208 210 213 215 216 217 217 215 214 214 215 216
76 86 94 98 103 107 110 115 120 125 129 133 138 144 150 154 157 159 162 164 167 169 170 172 175 177 180 183 186 189 192 194 195 198 200 201 200 196 193 192 191 189 187 185 185 186 187 190 192 194 195 197 199 202 204 208 211 212 213 214 215 217 217 217 215 215 215 216 216
61 72 85 94 101 108 113 115 121 126 129 132 134 139 146 150 154 157 160 164 168 170 172 174 177 180 182 184 187 190 192 195 196 197 199 200 198 195 193 192 190 189 189 190 191 192 194 196 198 200 202 204 206 207 209 211 213 214 213 214 214 215 215 215 214 214 214 216 216
53 58 68 81 92 101 109 116 122 129 134 135 135 136 140 146 150 155 160 164 168 170 173 176 178 180 183 184 186 189 192 195 196 196 197 197 195 193 193 193 192 192 196 201 201 202 202 204 205 207 209 210 211 211 211 212 213 213 212 213 213 213 214 213 213 212 213 214 216
47 51 57 68 81 93 104 111 119 128 135 139 139 139 141 147 152 157 161 165 167 170 173 176 177 179 181 183 185 188 191 193 195 196 195 194 193 192 192 190 187 190 198 207 211 211 211 211 211 212 213 213 213 212 211 211 210 209 209 210 211 213 213 213 212 211 212 213 214
41 46 52 63 76 87 96 103 110 120 130 140 145 146 148 152 156 160 163 165 167 170 172 174 175 178 181 184 188 191 193 194 195 195 194 192 192 191 188 182 180 183 192 203 210 213 213 213 213 213 213 212 210 209 209 209 207 206 206 207 209 212 213 213 212 211 211 211 212
38 41 46 55 66 76 85 94 102 110 122 137 144 148 153 159 161 165 168 171 172 172 173 175 178 182 186 190 193 195 196 196 197 196 196 195 194 190 183 178 177 181 189 197 204 207 210 211 210 209 208 207 205 204 204 205 205 205 205 205 208 211 213 213 213 211 210 210 211
36 37 41 46 54 64 73 81 89 99 110 121 130 139 148 155 161 167 175 182 185 186 188 190 192 194 196 197 198 199 200 201 200 200 199 198 196 189 180 175 176 181 188 194 199 201 204 206 206 206 204 202 201 201 201 203 204 205 206 207 209 211 213 213 213 212 211 211 212
34 35 36 40 45 52 61 69 75 81 86 91 99 109 120 131 138 145 158 177 191 200 204 206 206 204 203 203 203 203 204 205 205 203 201 199 194 186 179 174 175 180 186 191 194 197 198 200 202 202 202 201 201 202 203 204 205 207 209 209 210 211 213 214 214 214 214 214 214
34 34 34 36 39 43 49 57 63 68 72 76 80 85 93 102 109 120 139 163 186 200 207 209 210 209 208 207 206 206 206 207 206 204 200 196 191 186 181 179 178 180 182 186 189 192 193 195 196 198 200 202 204 206 208 209 209 210 211 213 213 213 214 215 216 216 216 216 216
37 35 35 35 36 38 41 47 53 59 65 71 76 81 88 98 111 130 155 174 188 196 202 207 209 209 208 207 205 204 204 204 203 201 197 193 190 187 185 185 185 183 182 181 183 185 188 191 193 196 199 204 209 212 214 215 214 214 214 215 216 216 216 217 219 219 219 218 218
40 38 37 37 37 38 39 42 46 52 57 64 71 78 83 91 101 122 154 176 188 196 203 209 211 210 208 205 202 201 200 200 200 198 196 193 191 190 189 191 192 191 187 184 183 184 187 191 195 199 203 208 215 218 220 219 218 216 217 218 219 220 220 220 221 222 221 220 218
44 42 40 39 38 39 40 41 43 44 47 52 58 62 66 67 62 57 65 140 187 200 209 216 218 216 211 206 203 200 199 198 199 198 197 196 195 195 195 195 197 198 197 195 194 195 196 199 202 205 209 213 219 223 224 223 221 220 220 222 223 223 224 224 224 223 221 220 219
47 46 44 42 40 40 40 40 40 40 39 39 40 42 45 47 43 36 29 22 13 301 241 236 233 228 223 217 211 206 202 201 201 201 201 200 200 200 200 200 201 203 204 206 207 208 208 208 208 209 212 217 221 225 228 227 226 226 227 228 228 227 227 226 225 222 220 219 221
48 49 48 45 43 42 41 40 39 38 36 34 32 29 29 30 31 30 25 18 10 0 336 288 254 242 237 232 225 218 212 208 207 207 206 205 204 204 204 204 205 207 209 211 214 215 215 213 211 209 211 217 222 226 229 232 233 233 234 234 234 233 230 228 225 223 222 223 225
46 48 49 48 46 43 42 41 39 38 36 34 32 29 26 23 21 21 20 18 12 4 353 322 271 250 241 237 234 229 223 218 215 213 212 210 208 207 207 208 208 209 210 212 214 215 215 213 210 207 208 216 223 226 230 234 237 238 238 238 237 236 233 230 227 225 226 228 230
40 44 47 48 47 45 44 42 41 39 37 35 33 32 31 28 22 17 13 13 16 16 8 327 264 244 237 233 231 229 226 224 221 219 216 214 212 209 208 208 208 208 207 208 210 211 208 204 200 198 206 220 227 230 233 237 240 240 240 240 240 238 236 233 230 230 231 233 234
35 38 41 45 47 47 45 44 43 41 39 37 35 35 34 33 30 25 17 10 8 26 101 186 212 222 226 225 224 223 223 223 223 222 220 218 214 210 207 204 202 200 198 199 200 198 192 186 186 195 212 225 230 234 238 241 243 243 243 242 241 240 237 235 234 235 236 236 236
33 34 36 39 42 45 45 44 44 43 42 40 39 37 37 37 36 32 27 18 6 350 211 189 193 202 211 217 219 220 220 222 223 224 224 221 216 211 205 199 194 188 184 186 193 195 193 192 198 207 217 223 229 235 241 244 246 245 245 244 242 240 238 236 237 238 239 239 239
33 32 33 34 36 39 42 43 43 43 43 42 42 41 40 40 40 38 34 27 17 358 310 235 212 206 209 215 219 220 221 222 223 224 224 221 216 210 203 195 186 177 174 184 197 204 206 207 210 214 218 223 229 235 241 244 246 245 244 243 241 239 238 237 238 239 241 241 240
32 32 32 31 32 33 36 38 40 41 41 42 42 42 42 41 41 42 40 36 28 14 348 294 253 232 221 218 217 219 221 222 223 223 222 219 214 208 201 193 183 176 177 189 199 206 210 214 216 218 222 227 233 238 241 243 244 244 242 241 239 238 236 236 237 239 240 240 239
32 32 31 31 30 31 31 33 34 36 38 39 40 41 42 41 42 43 44 43 37 28 14 348 300 261 237 221 212 213 218 223 223 222 220 216 212 207 201 194 188 185 188 194 202 207 212 217 222 226 230 234 238 241 243 244 244 243 241 239 237 235 235 235 236 237 238 238 237
31 31 30 30 30 30 30 30 30 31 33 35 36 38 39 40 40 42 44 46 45 40 31 19 356 297 248 226 214 211 216 222 225 223 220 217 216 213 208 203 201 200 199 200 202 206 210 216 222 227 231 235 239 242 244 245 244 243 241 239 236 235 233 233 234 235 235 235 234
30 30 29 29 29 29 29 28 28 28 28 29 31 32 35 36 38 39 42 44 48 48 44 37 28 10 288 240 230 226 224 224 225 223 221 221 225 227 224 218 213 210 207 203 200 199 202 206 212 218 223 228 233 238 242 244 244 243 241 238 236 235 234 233 233 232 232 231 231
29 29 28 28 27 27 27 27 27 26 26 26 26 26 28 30 32 35 38 41 45 49 51 49 42 35 23 332 268 251 242 233 225 221 220 223 228 232 231 225 219 214 211 206 200 196 194 197 203 209 216 221 227 233 238 242 243 242 240 238 237 236 235 233 232 231 229 228 227
27 28 28 27 26 25 25 25 25 25 24 23 22 21 21 22 23 26 30 35 40 45 50 54 52 42 30 18 2 325 277 251 236 228 223 222 226 230 229 225 219 214 212 209 202 196 192 194 201 208 215 220 224 230 235 240 242 242 240 239 238 237 236 234 231 229 227 225 224
24 25 26 26 25 24 24 23 23 23 22 21 20 18 17 16 15 14 17 22 29 36 44 54 60 55 40 17 2 354 342 314 275 253 241 234 230 228 226 223 218 215 213 212 208 202 197 199 207 216 221 223 226 230 234 238 241 241 241 240 239 239 238 235 231 228 225 223 221
20 22 23 23 23 23 22 22 21 21 20 19 17 16 14 12 10 8 7 5 6 11 22 36 50 61 64 52 17 350 340 335 323 302 276 257 243 233 226 222 219 217 216 215 214 212 210 209 214 221 226 227 229 231 234 236 239 242 243 242 240 239 238 235 232 228 224 221 218
17 18 19 20 21 21 21 21 20 19 18 16 14 12 11 9 8 6 4 359 351 345 347 358 10 28 52 69 67 38 353 331 324 317 305 287 264 245 231 223 220 219 219 219 220 219 219 217 218 220 224 225 227 229 231 233 236 240 242 242 240 239 237 235 231 227 223 219 217
15 15 16 17 17 19 19 20 20 18 17 15 12 10 8 7 6 5 3 360 354 345 337 330 330 336 350 12 37 55 49 4 327 316 308 299 286 266 245 231 224 222 222 222 223 223 222 221 219 218 218 219 222 224 226 228 230 234 238 239 239 237 236 234 231 226 222 218 216
16 15 14 13 14 15 16 18 18 18 17 15 12 9 6 4 3 3 1 360 357 350 339 323 308 300 300 308 320 334 345 356 354 321 308 300 294 285 268 248 234 228 225 225 225 224 223 220 217 215 214 216 218 220 222 223 225 229 233 235 235 235 234 233 230 226 221 217 216
18 16 14 12 12 12 12 14 16 17 17 15 12 9 6 3 1 359 357 356 355 352 345 333 311 286 275 275 282 294 307 317 320 318 306 297 291 287 281 270 252 238 231 228 226 224 222 219 216 214 214 216 218 219 220 221 224 227 230 231 231 231 231 230 229 225 221 218 218
18 17 15 13 11 9 9 10 11 14 15 15 13 10 7 3 359 356 353 351 351 350 350 346 337 314 283 266 264 269 278 290 300 304 303 294 286 282 280 278 271 259 246 236 232 228 224 220 217 216 217 220 220 219 217 218 222 226 228 228 228 228 228 228 227 224 221 219 220
18 17 16 14 12 9 7 7 8 9 11 13 12 10 7 4 -0 356 352 349 347 347 347 347 345 339 324 292 264 256 259 265 274 285 293 296 292 283 278 276 277 276 271 261 251 242 233 226 220 219 220 221 220 217 216 217 220 224 226 227 228 228 228 227 226 224 221 219 222
15 16 15 14 12 10 7 6 5 6 7 8 9 9 7 5 1 357 352 348 344 341 339 339 339 339 336 328 298 260 249 251 258 266 276 285 290 289 284 279 279 280 280 276 270 263 253 240 228 222 220 219 218 217 216 218 220 223 226 228 229 229 228 227 225 222 220 219 222
13 13 13 12 11 10 8 7 5 4 4 4 4 5 5 5 3 358 354 348 343 338 335 333 331 331 332 335 333 309 260 247 249 255 263 271 279 284 285 283 280 280 279 275 267 261 256 249 237 227 220 217 217 217 218 219 220 222 224 226 228 229 229 228 225 222 219 219 222
11 10 10 10 10 10 9 8 7 5 3 2 1 1 1 2 2 360 355 350 345 340 335 332 329 328 328 329 334 336 321 270 252 252 258 264 272 277 280 280 278 276 275 273 266 256 249 244 237 228 219 216 215 216 218 219 220 221 222 224 225 227 228 227 226 223 221 220 223
9 8 8 7 7 8 8 9 8 6 4 1 359 357 357 358 360 360 358 353 348 342 337 333 330 328 326 325 326 329 331 322 284 262 260 264 270 275 278 278 276 273 270 268 265 259 252 244 237 228 220 216 215 216 217 218 219 220 222 223 223 224 225 225 224 223 222 222 224
7 6 5 5 5 5 7 8 8 7 5 2 358 356 355 355 357 358 358 356 351 345 339 334 331 328 325 322 320 320 323 326 319 295 275 270 270 273 277 280 277 274 270 266 263 260 256 249 241 231 223 218 216 216 217 218 219 220 222 223 223 224 223 223 223 222 223 224 226
5 4 4 3 3 3 5 6 7 6 4 2 359 356 354 354 354 355 356 356 354 348 342 336 332 328 325 322 319 317 317 318 320 316 301 284 274 272 274 278 279 277 274 269 263 259 256 252 246 237 227 221 218 218 219 220 220 220 221 223 224 224 224 223 222 221 222 224 226
3 3 2 2 2 2 3 4 5 4 3 1 359 357 354 353 352 353 354 355 354 351 346 340 335 330 327 323 320 317 316 315 315 316 314 304 290 278 274 275 277 278 276 273 269 263 257 253 249 243 235 227 222 220 221 221 221 221 221 221 223 223 224 223 222 222 222 223 226
Height
1338 1337 1337 1337 1336 1336 1335 1335 1336 1337 1338 1340 1341 1343 1343 1344 1345 1346 1347 1348 1349 1350 1352 1353 1355 1357 1359 1361 1363 1365 1367 1369 1372 1374 1377 1378 1380 1381 1383 1384 1386 1387 1388 1390 1392 1395 1398 1400 1403 1405 1407 1408 1409 1409 1410 1410 1410 1411 1412 1414 1415 1417 1418 1420 1422 1423 1423 1424 1425
1339 1338 1338 1338 1337 1337 1337 1337 1338 1339 1340 1342 1343 1344 1344 1345 1346 1347 1348 1349 1350 1351 1353 1354 1356 1358 1360 1362 1364 1366 1367 1369 1372 1374 1377 1379 1380 1382 1383 1384 1385 1387 1388 1391 1393 1396 1398 1400 1403 1404 1406 1407 1408 1408 1408 1409 1409 1410 1412 1413 1414 1416 1418 1419 1421 1422 1422 1423 1424
1342 1341 1341 1340 1340 1340 1340 1341 1341 1342 1343 1344 1345 1346 1346 1347 1348 1348 1349 1350 1351 1352 1353 1355 1358 1359 1361 1363 1365 1367 1368 1370 1373 1375 1377 1379 1380 1382 1383 1384 1385 1387 1388 1391 1393 1396 1398 1400 1402 1404 1405 1406 1407 1407 1407 1408 1408 1409 1411 1412 1413 1415 1416 1418 1419 1420 1421 1422 1423
1343 1343 1343 1343 1343 1343 1343 1344 1344 1344 1345 1346 1347 1348 1349 1350 1350 1351 1351 1352 1353 1354 1355 1357 1359 1361 1363 1364 1366 1368 1369 1371 1373 1375 1377 1378 1380 1382 1383 1384 1385 1387 1388 1391 1393 1396 1398 1399 1402 1403 1405 1405 1406 1406 1406 1406 1407 1409 1410 1411 1413 1414 1415 1417 1418 1419 1420 1421 1422
1343 1344 1345 1346 1346 1346 1346 1346 1347 1347 1348 1349 1350 1351 1351 1352 1353 1353 1354 1355 1355 1356 1358 1359 1360 1362 1364 1365 1367 1368 1370 1372 1374 1376 1377 1379 1381 1382 1383 1384 1385 1387 1389 1391 1393 1395 1397 1399 1401 1403 1404 1404 1404 1404 1405 1405 1407 1408 1409 1411 1412 1413 1414 1415 1417 1418 1419 1420 1421
1346 1346 1346 1347 1347 1348 1348 1348 1349 1349 1350 1352 1353 1353 1354 1354 1355 1356 1356 1357 1358 1358 1360 1361 1362 1364 1365 1367 1368 1370 1371 1373 1375 1376 1378 1379 1380 1381 1382 1383 1385 1387 1389 1391 1393 1395 1397 1399 1401 1402 1403 1403 1403 1404 1404 1405 1406 1407 1408 1410 1411 1412 1413 1414 1416 1417 1418 1419 1420
1349 1348 1348 1348 1348 1349 1350 1350 1351 1351 1352 1353 1353 1354 1355 1356 1357 1357 1358 1358 1359 1360 1361 1363 1364 1365 1366 1368 1369 1371 1372 1374 1375 1376 1377 1378 1379 1380 1381 1383 1384 1387 1389 1391 1393 1395 1397 1399 1400 1401 1402 1402 1403 1403 1403 1404 1405 1406 1408 1408 1410 1411 1412 1413 1415 1416 1417 1418 1420
1351 1350 1350 1349 1350 1350 1351 1352 1352 1353 1353 1353 1354 1355 1356 1357 1358 1358 1359 1359 1360 1361 1363 1364 1365 1367 1368 1369 1371 1372 1373 1374 1375 1376 1377 1378 1378 1379 1380 1382 1384 1387 1389 1391 1393 1395 1397 1398 1399 1400 1401 1401 1401 1402 1403 1403 1405 1406 1407 1408 1409 1410 1411 1412 1414 1415 1417 1418 1419
1353 1352 1352 1352 1352 1352 1353 1353 1353 1353 1353 1354 1354 1355 1356 1357 1358 1358 1359 1360 1362 1363 1365 1366 1368 1369 1370 1371 1372 1373 1374 1374 1375 1376 1376 1377 1378 1379 1380 1383 1385 1387 1389 1391 1393 1394 1396 1397 1398 1399 1400 1400 1400 1401 1402 1403 1404 1405 1406 1407 1408 1409 1410 1412 1413 1414 1416 1418 1419
1354 1354 1354 1353 1353 1353 1353 1353 1354 1354 1354 1355 1355 1356 1357 1358 1358 1359 1360 1362 1363 1365 1367 1368 1369 1370 1371 1372 1373 1373 1374 1375 1375 1375 1376 1377 1378 1379 1381 1383 1385 1387 1389 1392 1393 1394 1395 1397 1398 1398 1399 1399 1400 1400 1401 1402 1403 1404 1406 1407 1408 1409 1410 1411 1412 1414 1415 1417 1418
1356 1356 1356 1356 1356 1356 1355 1355 1356 1356 1356 1357 1358 1358 1359 1360 1361 1362 1363 1364 1365 1366 1367 1368 1369 1370 1371 1372 1373 1374 1374 1375 1375 1376 1377 1378 1378 1380 1381 1383 1385 1386 1388 1391 1393 1394 1395 1396 1397 1397 1398 1398 1399 1399 1400 1402 1403 1404 1405 1406 1407 1408 1409 1410 1412 1413 1415 1416 1418
1359 1358 1358 1358 1358 1358 1358 1358 1358 1358 1359 1360 1361 1361 1362 1363 1363 1364 1365 1366 1367 1368 1368 1369 1370 1371 1372 1373 1373 1374 1375 1375 1376 1377 1378 1378 1379 1380 1381 1383 1384 1386 1387 1389 1391 1393 1394 1395 1395 1396 1396 1397 1398 1399 1400 1401 1402 1403 1404 1405 1407 1408 1409 1410 1411 1413 1414 1415 1417
1362 1361 1360 1360 1360 1360 1359 1360 1360 1361 1362 1362 1363 1364 1364 1365 1365 1366 1367 1367 1368 1369 1370 1370 1371 1372 1373 1373 1374 1375 1376 1376 1377 1378 1378 1379 1380 1381 1381 1383 1384 1385 1387 1388 1389 1390 1392 1392 1393 1394 1395 1396 1398 1398 1400 1401 1402 1403 1404 1405 1406 1407 1408 1409 1411 1412 1413 1415 1416
1364 1363 1363 1363 1362 1362 1361 1361 1362 1362 1363 1364 1365 1365 1366 1367 1367 1367 1368 1368 1369 1370 1371 1371 1372 1373 1373 1374 1375 1375 1376 1376 1377 1378 1379 1380 1381 1381 1382 1382 1384 1385 1386 1387 1388 1389 1390 1390 1392 1393 1394 1396 1397 1398 1399 1400 1401 1402 1403 1404 1406 1407 1408 1409 1410 1412 1413 1413 1414
1367 1366 1365 1364 1364 1363 1363 1363 1363 1364 1364 1365 1366 1366 1367 1368 1368 1368 1369 1369 1370 1370 1371 1372 1373 1373 1374 1374 1375 1375 1376 1377 1377 1378 1379 1380 1381 1381 1382 1382 1383 1385 1386 1387 1388 1389 1389 1390 1391 1392 1394 1396 1397 1398 1399 1400 1401 1402 1403 1404 1405 1407 1408 1409 1410 1411 1412 1413 1413
1369 1368 1367 1367 1366 1365 1365 1365 1365 1365 1365 1366 1367 1367 1368 1368 1369 1369 1370 1370 1371 1371 1372 1372 1373 1373 1374 1374 1375 1375 1376 1377 1378 1378 1379 1380 1381 1381 1382 1382 1383 1385 1386 1387 1388 1389 1389 1390 1391 1392 1393 1395 1397 1398 1398 1399 1400 1402 1403 1404 1405 1407 1408 1409 1410 1411 1411 1412 1413
1372 1371 1370 1369 1368 1368 1367 1367 1367 1367 1367 1367 1368 1368 1368 1369 1369 1370 1371 1372 1372 1372 1373 1373 1373 1373 1374 1374 1375 1376 1376 1377 1378 1378 1379 1380 1381 1381 1381 1382 1383 1385 1386 1387 1388 1389 1389 1390 1391 1392 1393 1395 1396 1397 1398 1399 1400 1402 1403 1404 1405 1407 1408 1408 1409 1410 1410 1411 1412
1374 1373 1373 1372 1371 1370 1370 1370 1369 1369 1369 1369 1369 1369 1370 1370 1370 1371 1372 1373 1373 1373 1373 1374 1374 1374 1375 1375 1375 1376 1376 1377 1378 1378 1379 1380 1381 1381 1382 1382 1383 1384 1386 1387 1388 1389 1390 1390 1391 1392 1393 1395 1396 1397 1398 1399 1400 1402 1403 1404 1405 1406 1407 1408 1409 1409 1409 1410 1411
1376 1376 1375 1374 1374 1373 1373 1372 1372 1372 1371 1371 1371 1371 1371 1372 1372 1372 1373 1373 1373 1374 1374 1374 1375 1375 1375 1376 1376 1376 1377 1377 1378 1379 1380 1381 1381 1382 1382 1383 1383 1384 1385 1387 1388 1389 1390 1391 1391 1392 1393 1394 1395 1396 1398 1399 1400 1402 1403 1404 1405 1406 1407 1408 1408 1408 1408 1409 1411
1378 1378 1377 1377 1376 1376 1375 1375 1375 1374 1374 1373 1373 1373 1373 1373 1373 1373 1373 1374 1374 1375 1375 1375 1375 1376 1376 1376 1377 1377 1378 1378 1379 1379 1380 1381 1382 1383 1383 1383 1383 1384 1385 1387 1388 1389 1390 1391 1392 1392 1393 1394 1395 1396 1398 1399 1400 1402 1403 1404 1405 1406 1406 1407 1407 1407 1407 1408 1410
1381 1380 1380 1379 1378 1378 1378 1377 1377 1377 1376 1376 1375 1375 1375 1375 1374 1375 1375 1375 1375 1375 1376 1376 1376 1377 1377 1377 1377 1378 1378 1379 1380 1380 1381 1382 1382 1383 1383 1384 1384 1385 1386 1387 1388 1389 1390 1391 1392 1393 1394 1395 1396 1396 1397 1399 1400 1402 1403 1404 1405 1405 1406 1406 1406 1406 1406 1407 1409
1383 1383 1382 1381 1381 1380 1379 1379 1379 1378 1378 1378 1377 1377 1376 1376 1376 1376 1376 1376 1376 1377 1377 1377 1377 1378 1378 1378 1378 1379 1379 1380 1380 1381 1382 1382 1383 1383 1384 1384 1385 1385 1386 1387 1388 1389 1390 1392 1393 1393 1394 1395 1396 1396 1397 1398 1400 1401 1403 1403 1404 1404 1405 1405 1404 1404 1405 1407 1408
1386 1385 1384 1383 1383 1382 1381 1381 1380 1380 1379 1379 1379 1378 1378 1378 1378 1377 1377 1377 1377 1378 1378 1378 1378 1378 1379 1379 1379 1379 1380 1381 1381 1382 1382 1383 1383 1384 1384 1385 1385 1386 1387 1388 1388 1389 1391 1392 1393 1394 1394 1395 1396 1396 1397 1398 1399 1401 1402 1403 1403 1403 1403 1403 1403 1403 1404 1406 1407
1388 1387 1386 1385 1384 1383 1383 1382 1381 1381 1380 1380 1380 1380 1380 1380 1379 1379 1379 1378 1378 1378 1378 1379 1379 1379 1380 1380 1380 1381 1381 1382 1382 1383 1383 1383 1384 1384 1385 1385 1386 1386 1387 1388 1388 1389 1390 1392 1393 1393 1394 1394 1395 1396 1397 1398 1399 1400 1401 1402 1402 1402 1402 1402 1402 1403 1404 1405 1406
1390 1389 1388 1387 1386 1385 1384 1383 1383 1382 1382 1381 1381 1381 1381 1381 1381 1381 1380 1380 1380 1379 1379 1379 1380 1380 1381 1381 1382 1382 1382 1383 1383 1383 1384 1384 1384 1385 1385 1386 1386 1387 1387 1388 1388 1389 1390 1391 1392 1392 1393 1393 1394 1395 1396 1397 1398 1399 1400 1401 1401 1401 1401 1401 1401 1402 1403 1404 1405
1391 1390 1389 1388 1387 1386 1385 1385 1384 1383 1383 1383 1382 1382 1382 1382 1382 1382 1382 1381 1381 1381 1381 1380 1381 1381 1382 1382 1382 1383 1383 1383 1384 1384 1384 1384 1385 1385 1385 1386 1386 1386 1387 1388 1388 1388 1389 1390 1391 1391 1392 1393 1393 1394 1395 1397 1398 1398 1399 1399 1400 1400 1400 1400 1400 1401 1402 1403 1404
1393 1391 1390 1390 1388 1388 1387 1386 1386 1385 1384 1384 1383 1383 1383 1383 1383 1382 1382 1382 1382 1382 1382 1382 1381 1382 1382 1383 1383 1383 1383 1383 1384 1384 1384 1385 1385 1385 1385 1385 1386 1386 1386 1387 1387 1388 1388 1389 1390 1390 1391 1392 1392 1393 1394 1396 1397 1397 1398 1398 1398 1398 1398 1399 1400 1401 1402 1403 1403
1393 1393 1392 1391 1390 1389 1388 1387 1387 1386 1385 1385 1384 1384 1384 1383 1383 1383 1383 1383 1383 1383 1383 1383 1382 1382 1383 1383 1384 1384 1384 1384 1384 1384 1384 1384 1385 1385 1385 1385 1385 1386 1386 1386 1387 1387 1388 1388 1388 1389 1390 1391 1392 1393 1394 1395 1396 1396 1397 1398 1398 1398 1398 1398 1399 1400 1401 1402 1403
1395 1394 1393 1392 1391 1390 1389 1388 1388 1387 1386 1386 1385 1385 1385 1384 1384 1383 1383 1383 1383 1383 1383 1383 1383 1383 1383 1383 1383 1384 1384 1384 1384 1383 1384 1384 1384 1384 1384 1385 1385 1385 1385 1386 1386 1386 1387 1387 1388 1388 1389 1390 1391 1392 1393 1394 1395 1396 1396 1397 1397 1397 1397 1398 1399 1399 1400 1401 1402
1396 1395 1394 1393 1392 1391 1390 1390 1389 1388 1388 1387 1386 1386 1385 1385 1384 1384 1383 1383 1383 1383 1383 1383 1383 1383 1383 1383 1383 1383 1383 1384 1384 1383 1383 1383 1383 1383 1383 1384 1384 1384 1384 1385 1385 1385 1386 1386 1387 1387 1388 1389 1390 1391 1392 1393 1393 1394 1395 1396 1396 1397 1397 1398 1398 1399 1399 1400 1401
1398 1397 1395 1394 1393 1392 1392 1391 1390 1389 1389 1388 1387 1387 1386 1385 1385 1384 1384 1383 1383 1383 1383 1383 1383 1383 1382 1382 1382 1382 1383 1383 1383 1383 1383 1383 1383 1383 1383 1383 1383 1384 1384 1384 1384 1385 1385 1385 1386 1386 1387 1388 1389 1390 1391 1391 1392 1393 1394 1395 1396 1396 1397 1397 1398 1398 1399 1399 1400
1399 1398 1397 1396 1394 1393 1393 1392 1391 1390 1390 1389 1388 1387 1387 1386 1385 1385 1384 1384 1383 1383 1383 1383 1382 1382 1382 1382 1382 1382 1382 1382 1382 1382 1383 1383 1383 1383 1383 1383 1383 1383 1383 1383 1384 1384 1384 1385 1385 1386 1386 1387 1388 1389 1390 1390 1391 1392 1393 1394 1395 1396 1396 1397 1397 1398 1398 1399 1399
1400 1399 1398 1397 1396 1394 1393 1393 1392 1391 1390 1390 1389 1388 1387 1387 1386 1385 1385 1384 1384 1383 1383 1382 1382 1382 1381 1381 1381 1381 1381 1381 1381 1381 1382 1382 1383 1383 1382 1382 1382 1382 1383 1383 1383 1383 1384 1384 1385 1386 1386 1387 1387 1388 1389 1390 1391 1392 1393 1393 1394 1395 1396 1397 1397 1398 1398 1398 1398
1401 1400 1399 1398 1397 1396 1394 1393 1393 1392 1391 1390 1389 1389 1388 1387 1386 1386 1385 1384 1384 1383 1383 1383 1382 1382 1381 1381 1381 1380 1380 1380 1381 1381 1381 1381 1382 1382 1382 1382 1382 1382 1382 1382 1382 1383 1383 1384 1384 1385 1385 1386 1387 1387 1388 1389 1390 1391 1392 1393 1393 1395 1396 1396 1397 1397 1398 1398 1398
1402 1401 1400 1399 1398 1397 1396 1394 1393 1392 1391 1390 1390 1389 1388 1388 1387 1386 1385 1385 1384 1384 1383 1383 1383 1382 1381 1381 1380 1380 1380 1380 1380 1380 1381 1381 1381 1381 1382 1382 1382 1381 1381 1381 1381 1382 1382 1383 1383 1384 1384 1385 1386 1386 1387 1388 1388 1389 1390 1392 1393 1394 1395 1396 1396 1397 1397 1397 1397
1402 1401 1400 1399 1398 1398 1396 1395 1394 1393 1392 1390 1390 1389 1389 1388 1387 1387 1386 1385 1384 1384 1383 1383 1383 1382 1381 1381 1380 1380 1379 1380 1380 1380 1380 1380 1380 1380 1381 1381 1381 1381 1381 1380 1380 1381 1381 1382 1382 1383 1383 1384 1385 1385 1386 1387 1387 1388 1389 1390 1392 1393 1394 1395 1396 1396 1397 1397 1397
1403 1402 1401 1400 1399 1398 1397 1396 1395 1393 1392 1391 1390 1389 1388 1388 1388 1387 1386 1385 1384 1384 1383 1383 1382 1382 1381 1381 1380 1380 1379 1379 1379 1379 1379 1379 1379 1379 1380 1380 1380 1380 1380 1380 1379 1380 1380 1381 1381 1382 1382 1383 1383 1384 1385 1386 1386 1387 1388 1389 1390 1392 1393 1394 1395 1396 1396 1396 1397
1403 1402 1401 1400 1399 1398 1397 1396 1395 1394 1393 1392 1391 1389 1388 1388 1387 1387 1386 1385 1384 1383 1383 1382 1382 1381 1381 1380 1380 1379 1379 1379 1379 1379 1379 1378 1378 1378 1378 1378 1378 1379 1379 1379 1379 1379 1379 1379 1380 1380 1381 1381 1382 1383 1383 1384 1385 1385 1386 1387 1389 1390 1392 1393 1394 1394 1395 1396 1396
1403 1402 1401 1400 1399 1398 1398 1397 1395 1394 1393 1392 1391 1390 1389 1388 1387 1386 1386 1385 1384 1383 1383 1382 1382 1381 1381 1380 1380 1379 1379 1378 1378 1378 1378 1378 1378 1378 1378 1378 1378 1377 1378 1378 1378 1378 1378 1378 1378 1379 1379 1380 1380 1381 1382 1383 1383 1384 1385 1386 1387 1389 1390 1391 1392 1393 1394 1394 1395
1404 1403 1402 1401 1399 1398 1398 1397 1396 1395 1394 1393 1391 1390 1389 1388 1387 1386 1385 1385 1384 1383 1383 1382 1381 1381 1380 1380 1379 1379 1378 1378 1378 1378 1377 1377 1377 1377 1377 1376 1376 1376 1376 1376 1377 1377 1377 1377 1377 1378 1378 1378 1379 1380 1380 1381 1382 1383 1384 1385 1386 1387 1388 1389 1391 1391 1392 1393 1393
1404 1403 1402 1401 1400 1398 1398 1397 1396 1395 1394 1393 1392 1390 1389 1388 1387 1386 1385 1384 1383 1383 1382 1382 1381 1380 1380 1379 1379 1378 1378 1378 1377 1377 1377 1376 1376 1376 1376 1375 1375 1375 1375 1375 1375 1375 1376 1376 1376 1376 1377 1377 1378 1378 1379 1380 1381 1382 1383 1383 1385 1386 1387 1388 1389 1390 1391 1391 1392